Saint Cloud, MN

11:37 PM CDT on August 30, 2016 (GMT -0500)
Saint Cloud Regional

Weather History for KSTC - December, 2012

Change the Weather History Date:

Sunday, December 30, 2012

  Actual Average Record
Temperature  
Mean Temperature 6 °F 12 °F  
Max Temperature 19 °F 22 °F 46 °F (1904)
Min Temperature -7 °F 3 °F -26 °F (1976)
Degree Days  
Heating Degree Days 59 53  
Month to date heating degree days 1390 1469  
Since 1 July heating degree days 3212 3394  
Cooling Degree Days 0 0  
Month to date cooling degree days 0 0  
Year to date cooling degree days 739 465  
Moisture  
Dew Point 1 °F    
Average Humidity 81    
Maximum Humidity 91    
Minimum Humidity 71    
Precipitation  
Precipitation 0.00 in 0.03 in 0.84 in (2010)
Month to date precipitation 1.50 0.80  
Year to date precipitation 25.01 27.71  
Snow  
Snow 0.00 in 0.30 in 6.50 in (1936)
Month to date snowfall 14.8 9.1  
Since 1 July snowfall 18.0 18.3  
Snow Depth 6.00 in    
Sea Level Pressure  
Sea Level Pressure 30.11 in    
Wind  
Wind Speed 5 mph (SE)    
Max Wind Speed 16 mph    
Max Gust Speed 22 mph    
Visibility 7 miles    
Events      
T = Trace of Precipitation, MM = Missing Value Source: NWS Daily Summary

Daily Weather History Graph

Daily Weather History Graph

Search for Another Location

Airport or City:

Trip Planner

Search our weather history database for the weather conditions in past years. The results will help you decide how hot, cold, wet, or windy it might be!

Date:

Astronomy

Dec. 30, 2012 Rise Set
Actual Time 7:56 AM CST 4:41 PM CST
Civil Twilight 7:22 AM CST 5:16 PM CST
Nautical Twilight 6:44 AM CST 5:53 PM CST
Astronomical Twilight 6:08 AM CST 6:29 PM CST
Moon 7:21 PM CST (12/30) 8:58 AM CST (12/30)
Length of Visible Light 9h 53m
Length of Day
8h 45m
Waning Gibbous, 95% of the Moon is Illuminated
Dec 30
Waning Gibbous
Jan 4
Last Quarter
Jan 11
New
Jan 18
First Quarter
Jan 26
Full

Hourly Weather History & Observations

Time (CST) Temp. Windchill Dew Point Humidity Pressure Visibility Wind Dir Wind Speed Gust Speed Precip Events Conditions
12:53 AM -2.9 °F - -9.0 °F 75% 30.23 in 7.0 mi Calm Calm - N/A   Clear
1:53 AM -5.1 °F - -8.0 °F 87% 30.25 in 7.0 mi Calm Calm - N/A   Clear
2:53 AM -6.0 °F - -11.0 °F 79% 30.25 in 8.0 mi Calm Calm - N/A   Clear
3:53 AM -5.1 °F - -9.9 °F 80% 30.25 in 8.0 mi Calm Calm - N/A   Clear
4:53 AM -7.1 °F -15.9 °F -11.0 °F 83% 30.24 in 7.0 mi SE 3.5 mph - N/A   Clear
5:53 AM -2.0 °F -12.2 °F -7.1 °F 79% 30.23 in 6.0 mi SE 4.6 mph - N/A   Haze
6:53 AM -2.0 °F -10.1 °F -7.1 °F 79% 30.22 in 6.0 mi SE 3.5 mph - N/A   Haze
7:53 AM -5.1 °F -13.6 °F -8.0 °F 87% 30.22 in 5.0 mi SSE 3.5 mph - N/A   Clear
8:53 AM -2.0 °F -13.9 °F -6.0 °F 83% 30.22 in 4.0 mi SSE 5.8 mph - N/A   Clear
9:53 AM 1.9 °F -10.6 °F -2.0 °F 83% 30.20 in 5.0 mi SE 6.9 mph - N/A   Clear
10:53 AM 6.1 °F -6.8 °F 1.0 °F 80% 30.17 in 6.0 mi SE 8.1 mph - N/A   Haze
11:53 AM 10.0 °F 0.4 °F 3.9 °F 76% 30.13 in 7.0 mi SE 5.8 mph - N/A   Clear
12:53 PM 12.9 °F 1.6 °F 6.1 °F 74% 30.08 in 7.0 mi SE 8.1 mph - N/A   Clear
1:53 PM 16.0 °F 7.4 °F 9.0 °F 74% 30.03 in 8.0 mi SE 5.8 mph - N/A   Clear
2:53 PM 17.1 °F 10.0 °F 10.0 °F 74% 29.99 in 9.0 mi SE 4.6 mph - N/A   Clear
3:53 PM 18.0 °F 12.7 °F 10.9 °F 74% 29.99 in 10.0 mi ESE 3.5 mph - N/A   Clear
4:53 PM 14.0 °F - 9.0 °F 80% 29.98 in 8.0 mi Calm Calm - N/A   Clear
5:53 PM 12.9 °F - 8.1 °F 81% 29.98 in 9.0 mi Calm Calm - N/A   Overcast
6:53 PM 8.1 °F - 5.0 °F 87% 29.99 in 6.0 mi Calm Calm - N/A   Clear
7:53 PM 3.0 °F -6.4 °F 1.0 °F 91% 29.99 in 5.0 mi NNW 4.6 mph - N/A   Clear
8:53 PM 7.0 °F -3.3 °F 3.9 °F 87% 30.00 in 5.0 mi NW 5.8 mph - N/A   Clear
9:53 PM 9.0 °F -5.1 °F 5.0 °F 84% 30.00 in 6.0 mi NW 10.4 mph - N/A   Clear
10:45 PM 12.2 °F -1.8 °F 8.6 °F 85% 29.92 in 9.0 mi NW 11.5 mph - N/A   Mostly Cloudy
10:53 PM 14.0 °F 0.5 °F 9.0 °F 80% 30.03 in 10.0 mi NW 11.5 mph - N/A   Scattered Clouds
11:53 PM 15.1 °F 0.5 °F 10.0 °F 80% 30.05 in 10.0 mi NW 13.8 mph 21.9 mph N/A   Partly Cloudy